TAM8084 SBGR-EGLL

Flight info

Callsign TAM8084
Flight time N/A
Altitude 39000
Route VUMEV UZ14 NITLU UZ3 UTLEV UZ88 PABES UZ4 UKAVA UZ51 MOTBU DCT MOVGA/N0480F410 DCT BIKOM/M084F410 DCT ULTEM DCT 25N028W 30N026W 35N024W 40N020W DCT GONAN DCT TAMEL DCT EVBAK DCT GAPLI/N0482F410 DCT SIDDI DCT DAWLY DCT ELRIP DCT OTMET
Aircraft B772/H-SDE2E3FGHIJ5LORVWXY/LB1D1

Departure

Time 2026-05-07 20:15
Airport São Paulo/Guarulhos–Governor André Franco Montoro International Airport (SBGR)

Arrival

Time N/A
Airport London Heathrow Airport (EGLL)
Time Latitude Longitude Altitude Speed Heading
2026-05-07 19:41 -23.42944 -46.48224 2473 ft 0 kts 325°
2026-05-07 20:01 -23.42944 -46.48223 2472 ft 0 kts 325°
2026-05-07 20:05 -23.42946 -46.48222 2472 ft 2 kts 324°
2026-05-07 20:05 -23.42957 -46.48210 2472 ft 2 kts 300°
2026-05-07 20:05 -23.42963 -46.48195 2472 ft 2 kts 278°
2026-05-07 20:06 -23.42963 -46.48179 2472 ft 2 kts 257°
2026-05-07 20:06 -23.42958 -46.48164 2472 ft 2 kts 237°
2026-05-07 20:06 -23.42948 -46.48152 2472 ft 2 kts 216°
2026-05-07 20:06 -23.42935 -46.48144 2472 ft 2 kts 195°
2026-05-07 20:07 -23.42921 -46.48142 2472 ft 1 kts 175°
2026-05-07 20:07 -23.42916 -46.48143 2472 ft 0 kts 173°
2026-05-07 20:10 -23.42925 -46.48141 2472 ft 2 kts 174°
2026-05-07 20:10 -23.42947 -46.48140 2472 ft 4 kts 176°
2026-05-07 20:10 -23.42982 -46.48138 2472 ft 5 kts 176°
2026-05-07 20:10 -23.43028 -46.48134 2472 ft 7 kts 175°
2026-05-07 20:11 -23.43081 -46.48128 2472 ft 8 kts 172°
2026-05-07 20:11 -23.43140 -46.48117 2472 ft 9 kts 166°
2026-05-07 20:11 -23.43195 -46.48141 2472 ft 9 kts 238°
2026-05-07 20:11 -23.43220 -46.48213 2472 ft 10 kts 250°
2026-05-07 20:12 -23.43241 -46.48286 2472 ft 6 kts 249°
2026-05-07 20:12 -23.43268 -46.48330 2472 ft 7 kts 222°
2026-05-07 20:12 -23.43288 -46.48344 2472 ft 2 kts 205°
2026-05-07 20:12 -23.43303 -46.48349 2472 ft 0 kts 192°
2026-05-07 20:13 -23.43310 -46.48350 2472 ft 1 kts 185°
2026-05-07 20:13 -23.43331 -46.48351 2472 ft 3 kts 178°
2026-05-07 20:13 -23.43363 -46.48344 2472 ft 5 kts 164°
2026-05-07 20:13 -23.43402 -46.48322 2472 ft 6 kts 132°
2026-05-07 20:14 -23.43407 -46.48268 2472 ft 8 kts 77°
2026-05-07 20:14 -23.43376 -46.48143 2472 ft 45 kts 73°
2026-05-07 20:14 -23.43204 -46.47509 2473 ft 125 kts 73°
2026-05-07 20:14 -23.42885 -46.46346 2478 ft 190 kts 72°
2026-05-07 20:15 -23.42502 -46.44789 2644 ft 228 kts 69°
2026-05-07 20:15 -23.41961 -46.43088 3026 ft 258 kts 65°
2026-05-07 20:15 -23.41374 -46.41250 4239 ft 249 kts 68°
2026-05-07 20:15 -23.40892 -46.39527 5139 ft 245 kts 68°
2026-05-07 20:16 -23.40366 -46.37687 5520 ft 264 kts 68°
2026-05-07 20:16 -23.39562 -46.35887 6057 ft 268 kts 45°
2026-05-07 20:16 -23.38146 -46.34580 6837 ft 265 kts 32°
2026-05-07 20:16 -23.36646 -46.33453 7626 ft 265 kts 31°
2026-05-07 20:17 -23.35106 -46.32309 8274 ft 271 kts 31°
2026-05-07 20:17 -23.33556 -46.31159 8980 ft 274 kts 31°
2026-05-07 20:17 -23.31980 -46.29989 9671 ft 278 kts 31°
2026-05-07 20:17 -23.30378 -46.28799 10346 ft 282 kts 32°
2026-05-07 20:18 -23.28695 -46.27551 10732 ft 298 kts 32°
2026-05-07 20:18 -23.26937 -46.26246 11125 ft 314 kts 32°
2026-05-07 20:18 -23.25088 -46.24874 11467 ft 329 kts 33°
2026-05-07 20:18 -23.23138 -46.23427 11817 ft 345 kts 33°
2026-05-07 20:19 -23.21130 -46.21936 12158 ft 358 kts 33°
2026-05-07 20:19 -23.19021 -46.20370 12492 ft 371 kts 33°
2026-05-07 20:19 -23.16882 -46.18779 13031 ft 377 kts 34°
2026-05-07 20:19 -23.14711 -46.17161 13707 ft 379 kts 34°
2026-05-07 20:20 -23.12517 -46.15524 14353 ft 383 kts 34°
2026-05-07 20:20 -23.10325 -46.13886 14932 ft 388 kts 34°
2026-05-07 20:20 -23.08087 -46.12212 15529 ft 392 kts 34°
2026-05-07 20:20 -23.05830 -46.10526 16155 ft 396 kts 34°
2026-05-07 20:21 -23.03560 -46.08830 16769 ft 399 kts 34°
2026-05-07 20:21 -23.01244 -46.07102 17366 ft 403 kts 34°
2026-05-07 20:21 -22.98910 -46.05360 17990 ft 406 kts 34°
2026-05-07 20:21 -22.96586 -46.03625 18501 ft 412 kts 34°
2026-05-07 20:22 -22.94200 -46.01846 18977 ft 419 kts 34°
2026-05-07 20:22 -22.91763 -46.00029 19470 ft 425 kts 34°
2026-05-07 20:22 -22.89293 -45.98188 20014 ft 430 kts 34°
2026-05-07 20:22 -22.86811 -45.96329 20507 ft 436 kts 34°
2026-05-07 20:23 -22.84295 -45.94430 20971 ft 442 kts 34°
2026-05-07 20:23 -22.81777 -45.92530 21425 ft 448 kts 33°
2026-05-07 20:23 -22.79200 -45.90588 21926 ft 452 kts 33°
2026-05-07 20:23 -22.76600 -45.88629 22424 ft 457 kts 33°
2026-05-07 20:24 -22.73999 -45.86670 22893 ft 462 kts 33°
2026-05-07 20:24 -22.71326 -45.84659 23391 ft 466 kts 33°
2026-05-07 20:24 -22.68669 -45.82660 23903 ft 470 kts 33°
2026-05-07 20:24 -22.65966 -45.80629 24384 ft 474 kts 33°
2026-05-07 20:25 -22.63256 -45.78593 24826 ft 479 kts 34°
2026-05-07 20:25 -22.60492 -45.76517 25296 ft 483 kts 34°
2026-05-07 20:25 -22.57720 -45.74436 25754 ft 486 kts 34°
2026-05-07 20:25 -22.54942 -45.72352 26205 ft 490 kts 34°
2026-05-07 20:26 -22.52117 -45.70233 26656 ft 494 kts 34°
2026-05-07 20:26 -22.49285 -45.68111 27090 ft 497 kts 34°
2026-05-07 20:26 -22.46434 -45.65975 27495 ft 501 kts 34°
2026-05-07 20:26 -22.43560 -45.63823 27901 ft 504 kts 34°
2026-05-07 20:27 -22.40659 -45.61652 28263 ft 509 kts 34°
2026-05-07 20:27 -22.37749 -45.59475 28625 ft 513 kts 34°
2026-05-07 20:27 -22.34823 -45.57288 29014 ft 516 kts 34°
2026-05-07 20:27 -22.31851 -45.55067 29442 ft 518 kts 34°
2026-05-07 20:28 -22.28900 -45.52863 29827 ft 521 kts 34°
2026-05-07 20:28 -22.25906 -45.50629 30205 ft 524 kts 34°
2026-05-07 20:28 -22.22876 -45.48369 30628 ft 526 kts 34°
2026-05-07 20:28 -22.19834 -45.46100 31137 ft 526 kts 34°
2026-05-07 20:29 -22.16805 -45.43843 31704 ft 524 kts 34°
2026-05-07 20:29 -22.13801 -45.41606 32238 ft 523 kts 34°
2026-05-07 20:29 -22.10800 -45.39372 32731 ft 522 kts 34°
2026-05-07 20:29 -22.07834 -45.37165 33186 ft 522 kts 34°
2026-05-07 20:30 -22.04832 -45.34933 33642 ft 523 kts 34°
2026-05-07 20:30 -22.01861 -45.32651 34037 ft 525 kts 37°
2026-05-07 20:30 -21.98960 -45.30193 34386 ft 527 kts 38°
2026-05-07 20:30 -21.96075 -45.27725 34821 ft 527 kts 38°
2026-05-07 20:31 -21.93215 -45.25284 35280 ft 527 kts 38°
2026-05-07 20:31 -21.90333 -45.22833 35720 ft 527 kts 38°
2026-05-07 20:31 -21.87465 -45.20400 36071 ft 528 kts 38°
2026-05-07 20:31 -21.84547 -45.17930 36285 ft 531 kts 38°
2026-05-07 20:32 -21.81645 -45.15478 36489 ft 534 kts 38°
2026-05-07 20:32 -21.78731 -45.13020 36757 ft 535 kts 38°
2026-05-07 20:32 -21.75806 -45.10554 37055 ft 535 kts 38°
2026-05-07 20:32 -21.72838 -45.08055 37340 ft 535 kts 38°
2026-05-07 20:33 -21.69911 -45.05593 37592 ft 536 kts 38°
2026-05-07 20:33 -21.66965 -45.03118 37777 ft 538 kts 38°
2026-05-07 20:33 -21.64038 -45.00659 37975 ft 539 kts 38°
2026-05-07 20:33 -21.61085 -44.98180 38214 ft 539 kts 38°
2026-05-07 20:34 -21.58102 -44.95678 38449 ft 539 kts 38°
2026-05-07 20:34 -21.55154 -44.93208 38635 ft 540 kts 38°
2026-05-07 20:34 -21.52181 -44.90717 38810 ft 541 kts 38°
2026-05-07 20:34 -21.49219 -44.88236 38929 ft 542 kts 38°
2026-05-07 20:35 -21.46211 -44.85719 39041 ft 544 kts 38°
2026-05-07 20:35 -21.43224 -44.83221 39164 ft 544 kts 38°
2026-05-07 20:35 -21.40254 -44.80739 39151 ft 542 kts 38°
2026-05-07 20:36 -21.34301 -44.75766 39155 ft 542 kts 38°
2026-05-07 20:36 -21.28372 -44.70815 39151 ft 542 kts 38°
2026-05-07 20:37 -21.22409 -44.65842 39157 ft 541 kts 39°
2026-05-07 20:37 -21.16485 -44.60907 39158 ft 542 kts 39°
2026-05-07 20:38 -21.10503 -44.55927 39160 ft 543 kts 38°
2026-05-07 20:38 -21.04535 -44.50965 39157 ft 543 kts 39°
2026-05-07 20:39 -20.98597 -44.46033 39156 ft 543 kts 39°
2026-05-07 20:39 -20.92609 -44.41067 39164 ft 542 kts 39°
2026-05-07 20:40 -20.86649 -44.36132 39155 ft 541 kts 39°
2026-05-07 20:40 -20.80709 -44.31217 39152 ft 540 kts 39°
2026-05-07 20:41 -20.74738 -44.26282 39158 ft 543 kts 39°
2026-05-07 20:41 -20.68754 -44.21342 39152 ft 541 kts 39°
2026-05-07 20:42 -20.62811 -44.16436 39152 ft 541 kts 39°
2026-05-07 20:42 -20.56864 -44.11435 39146 ft 543 kts 38°
2026-05-07 20:43 -20.50316 -44.07534 39147 ft 541 kts 20°
2026-05-07 20:43 -20.42999 -44.05719 39154 ft 539 kts
2026-05-07 20:44 -20.35526 -44.05009 39163 ft 536 kts
2026-05-07 20:44 -20.28094 -44.04340 39166 ft 536 kts
2026-05-07 20:45 -20.20647 -44.03670 39176 ft 538 kts
2026-05-07 20:45 -20.13203 -44.03001 39183 ft 536 kts
2026-05-07 20:46 -20.05776 -44.02210 39185 ft 537 kts
2026-05-07 20:46 -19.98396 -44.00810 39200 ft 538 kts
2026-05-07 20:47 -19.90978 -43.99410 39190 ft 539 kts
2026-05-07 20:47 -19.83616 -43.98045 39166 ft 538 kts
2026-05-07 20:48 -19.76180 -43.96682 39161 ft 540 kts
2026-05-07 20:48 -19.68794 -43.95336 39160 ft 537 kts
2026-05-07 20:49 -19.61366 -43.93989 39159 ft 540 kts
2026-05-07 20:49 -19.53945 -43.92646 39155 ft 539 kts
2026-05-07 20:50 -19.46544 -43.91310 39154 ft 539 kts
2026-05-07 20:50 -19.39194 -43.89985 39151 ft 538 kts
2026-05-07 20:51 -19.31732 -43.88642 39141 ft 539 kts
2026-05-07 20:51 -19.24356 -43.87315 39130 ft 538 kts
2026-05-07 20:52 -19.16923 -43.85980 39137 ft 540 kts
2026-05-07 20:52 -19.09520 -43.84651 39149 ft 539 kts
2026-05-07 20:53 -19.02095 -43.83320 39159 ft 541 kts
2026-05-07 20:53 -18.94693 -43.81993 39172 ft 541 kts
2026-05-07 20:54 -18.87231 -43.80658 39153 ft 540 kts
2026-05-07 20:54 -18.79790 -43.79327 39164 ft 541 kts
2026-05-07 20:55 -18.72336 -43.77995 39172 ft 540 kts
2026-05-07 20:55 -18.64946 -43.76676 39174 ft 539 kts
2026-05-07 20:56 -18.57475 -43.75343 39173 ft 541 kts
2026-05-07 20:56 -18.50064 -43.74022 39172 ft 539 kts
2026-05-07 20:57 -18.42639 -43.72700 39174 ft 540 kts
2026-05-07 20:57 -18.35285 -43.71392 39192 ft 537 kts
2026-05-07 20:58 -18.27850 -43.70071 39195 ft 538 kts
2026-05-07 20:58 -18.20480 -43.68762 39194 ft 537 kts
2026-05-07 20:59 -18.13078 -43.67508 39180 ft 538 kts
2026-05-07 20:59 -18.05603 -43.67751 39201 ft 531 kts 349°
2026-05-07 21:00 -17.98280 -43.68811 39195 ft 531 kts 348°
2026-05-07 21:00 -17.90945 -43.69889 39196 ft 532 kts 348°
2026-05-07 21:01 -17.83604 -43.70965 39187 ft 531 kts 348°
2026-05-07 21:01 -17.76263 -43.72041 39187 ft 532 kts 348°
2026-05-07 21:02 -17.68907 -43.73117 39190 ft 531 kts 348°
2026-05-07 21:02 -17.61573 -43.74189 39185 ft 531 kts 349°
2026-05-07 21:03 -17.54270 -43.75256 39181 ft 530 kts 348°
2026-05-07 21:03 -17.46944 -43.76325 39177 ft 530 kts 348°
2026-05-07 21:04 -17.39606 -43.77395 39164 ft 529 kts 348°
2026-05-07 21:04 -17.32329 -43.78455 39159 ft 530 kts 348°
2026-05-07 21:05 -17.25004 -43.79522 39150 ft 530 kts 349°
2026-05-07 21:05 -17.17664 -43.80590 39149 ft 529 kts 348°
2026-05-07 21:06 -17.10358 -43.81652 39147 ft 529 kts 348°
2026-05-07 21:06 -17.03072 -43.82710 39145 ft 529 kts 348°
2026-05-07 21:07 -16.95776 -43.83769 39140 ft 527 kts 349°
2026-05-07 21:07 -16.88490 -43.84826 39119 ft 528 kts 349°
2026-05-07 21:08 -16.81224 -43.85879 39113 ft 527 kts 349°
2026-05-07 21:08 -16.73922 -43.86936 39123 ft 526 kts 349°
2026-05-07 21:09 -16.66611 -43.87994 39117 ft 528 kts 349°
2026-05-07 21:09 -16.59341 -43.89045 39117 ft 527 kts 349°
2026-05-07 21:10 -16.52059 -43.90097 39116 ft 526 kts 349°
2026-05-07 21:10 -16.44809 -43.91144 39107 ft 526 kts 349°
2026-05-07 21:11 -16.37524 -43.92195 39102 ft 526 kts 349°
2026-05-07 21:11 -16.26602 -43.93769 39095 ft 526 kts 349°
2026-05-07 21:12 -16.19363 -43.94812 39080 ft 525 kts 349°
2026-05-07 21:12 -16.12106 -43.95856 39076 ft 524 kts 349°
2026-05-07 21:13 -16.04869 -43.96897 39086 ft 524 kts 349°
2026-05-07 21:13 -15.97608 -43.97940 39085 ft 522 kts 349°
2026-05-07 21:14 -15.90385 -43.98977 39086 ft 524 kts 349°
2026-05-07 21:14 -15.83171 -44.00012 39073 ft 522 kts 349°
2026-05-07 21:15 -15.75926 -44.01051 39081 ft 523 kts 349°
2026-05-07 21:15 -15.68697 -44.02086 39077 ft 523 kts 349°
2026-05-07 21:16 -15.61480 -44.03119 39075 ft 521 kts 349°
2026-05-07 21:16 -15.54287 -44.04146 39065 ft 523 kts 349°
2026-05-07 21:17 -15.47053 -44.05179 39056 ft 520 kts 349°
2026-05-07 21:17 -15.39850 -44.06208 39036 ft 520 kts 349°
2026-05-07 21:18 -15.32668 -44.07234 39029 ft 520 kts 349°
2026-05-07 21:18 -15.25484 -44.08260 39018 ft 521 kts 349°
2026-05-07 21:19 -15.18293 -44.09285 39014 ft 520 kts 349°
2026-05-07 21:19 -15.11072 -44.10080 39021 ft 522 kts 356°
2026-05-07 21:20 -15.03806 -44.10182 39024 ft 522 kts 357°
2026-05-07 21:20 -14.96537 -44.10262 39016 ft 521 kts 357°
2026-05-07 21:21 -14.89274 -44.10345 39009 ft 522 kts 357°
2026-05-07 21:21 -14.82021 -44.10430 39002 ft 519 kts 357°
2026-05-07 21:22 -14.74747 -44.10517 39002 ft 519 kts 357°
2026-05-07 21:22 -14.67526 -44.10603 39001 ft 518 kts 357°
2026-05-07 21:23 -14.60272 -44.10690 38993 ft 519 kts 357°
2026-05-07 21:23 -14.53053 -44.10776 38993 ft 518 kts 357°
2026-05-07 21:24 -14.45843 -44.10862 38999 ft 518 kts 357°
2026-05-07 21:24 -14.38610 -44.10949 38995 ft 517 kts 357°
2026-05-07 21:25 -14.31463 -44.11034 38988 ft 517 kts 357°
2026-05-07 21:25 -14.24207 -44.11121 38983 ft 515 kts 357°
2026-05-07 21:26 -14.17079 -44.11210 38990 ft 514 kts 357°
2026-05-07 21:26 -14.09886 -44.11301 38997 ft 513 kts 357°
2026-05-07 21:27 -14.02740 -44.11390 38995 ft 515 kts 357°
2026-05-07 21:27 -13.95564 -44.11480 39003 ft 513 kts 357°
2026-05-07 21:28 -13.88378 -44.11569 39009 ft 513 kts 357°
2026-05-07 21:28 -13.81265 -44.11658 39015 ft 512 kts 357°
2026-05-07 21:29 -13.74092 -44.11747 39019 ft 513 kts 357°
2026-05-07 21:29 -13.66977 -44.11836 39019 ft 512 kts 357°
2026-05-07 21:30 -13.59826 -44.11925 39023 ft 513 kts 357°
2026-05-07 21:30 -13.52668 -44.12014 39016 ft 510 kts 357°
2026-05-07 21:31 -13.45570 -44.12102 39017 ft 511 kts 357°
2026-05-07 21:31 -13.38449 -44.12190 39017 ft 509 kts 357°
2026-05-07 21:32 -13.31328 -44.12279 39005 ft 510 kts 357°
2026-05-07 21:32 -13.24223 -44.12373 39004 ft 508 kts 356°
2026-05-07 21:33 -13.17119 -44.12473 39006 ft 510 kts 357°
2026-05-07 21:33 -13.10037 -44.12573 39006 ft 509 kts 356°
2026-05-07 21:34 -13.02942 -44.12672 39001 ft 507 kts 357°
2026-05-07 21:34 -12.95858 -44.12771 39008 ft 509 kts 356°
2026-05-07 21:35 -12.88742 -44.12839 39018 ft 508 kts 357°
2026-05-07 21:35 -12.81670 -44.12866 39023 ft 508 kts 357°
2026-05-07 21:36 -12.74584 -44.12895 39030 ft 509 kts 357°
2026-05-07 21:36 -12.67471 -44.12926 39028 ft 508 kts 357°
2026-05-07 21:37 -12.60403 -44.12965 39030 ft 509 kts 357°
2026-05-07 21:37 -12.53309 -44.13050 39032 ft 508 kts 357°
2026-05-07 21:38 -12.46210 -44.13137 39029 ft 507 kts 357°
2026-05-07 21:38 -12.39133 -44.13222 39027 ft 507 kts 357°
2026-05-07 21:39 -12.32058 -44.13307 39031 ft 507 kts 357°
2026-05-07 21:39 -12.24983 -44.13391 39028 ft 508 kts 357°
2026-05-07 21:40 -12.17906 -44.13475 39017 ft 508 kts 357°
2026-05-07 21:40 -12.10862 -44.13555 39007 ft 507 kts 357°
2026-05-07 21:41 -12.03752 -44.13636 38996 ft 508 kts 357°
2026-05-07 21:41 -11.96686 -44.13715 38986 ft 507 kts 357°
2026-05-07 21:42 -11.89588 -44.13795 38978 ft 508 kts 357°
2026-05-07 21:42 -11.82520 -44.13875 38966 ft 506 kts 357°
2026-05-07 21:43 -11.75424 -44.13955 38959 ft 507 kts 357°
2026-05-07 21:43 -11.68364 -44.14035 38957 ft 506 kts 357°
2026-05-07 21:44 -11.61291 -44.14114 38957 ft 506 kts 357°
2026-05-07 21:44 -11.54244 -44.14194 38958 ft 506 kts 357°
2026-05-07 21:45 -11.47168 -44.14274 38959 ft 506 kts 357°
2026-05-07 21:45 -11.40143 -44.14352 38963 ft 505 kts 357°
2026-05-07 21:46 -11.33065 -44.14432 38964 ft 504 kts 357°
2026-05-07 21:46 -11.26065 -44.14511 38965 ft 504 kts 357°
2026-05-07 21:47 -11.19013 -44.14590 38970 ft 504 kts 357°
2026-05-07 21:47 -11.11975 -44.14669 38974 ft 504 kts 357°
2026-05-07 21:48 -11.04974 -44.14744 38980 ft 504 kts 357°
2026-05-07 21:48 -10.97924 -44.14819 38982 ft 503 kts 357°
2026-05-07 21:49 -10.90878 -44.14895 38983 ft 503 kts 357°
2026-05-07 21:49 -10.83893 -44.14971 38979 ft 503 kts 357°
2026-05-07 21:50 -10.76821 -44.15053 38983 ft 503 kts 357°
2026-05-07 21:50 -10.69834 -44.15134 38985 ft 502 kts 357°
2026-05-07 21:51 -10.62783 -44.15216 38983 ft 502 kts 357°
2026-05-07 21:51 -10.55765 -44.15297 38985 ft 502 kts 357°
2026-05-07 21:52 -10.48774 -44.15377 38988 ft 501 kts 357°
2026-05-07 21:52 -10.41786 -44.15454 38981 ft 502 kts 357°
2026-05-07 21:53 -10.34736 -44.15533 38977 ft 501 kts 357°
2026-05-07 21:53 -10.27767 -44.15610 38968 ft 500 kts 357°
2026-05-07 21:54 -10.20783 -44.15687 38962 ft 501 kts 357°
2026-05-07 21:54 -10.13785 -44.15765 38957 ft 500 kts 357°
2026-05-07 21:55 -10.06823 -44.15842 38954 ft 499 kts 357°
2026-05-07 21:55 -9.99822 -44.15919 38945 ft 501 kts 357°
2026-05-07 21:56 -9.92818 -44.15997 38952 ft 501 kts 357°
2026-05-07 21:56 -9.85846 -44.16074 38957 ft 501 kts 357°
2026-05-07 21:57 -9.78835 -44.16151 38965 ft 500 kts 357°
2026-05-07 21:57 -9.71828 -44.16227 38975 ft 499 kts 357°
2026-05-07 21:58 -9.64878 -44.16304 38970 ft 498 kts 356°
2026-05-07 21:58 -9.57930 -44.16380 38964 ft 498 kts 356°
2026-05-07 21:59 -9.50970 -44.16456 38959 ft 497 kts 356°
2026-05-07 21:59 -9.44036 -44.16531 38950 ft 498 kts 356°
2026-05-07 22:00 -9.37045 -44.16608 38948 ft 497 kts 356°
2026-05-07 22:00 -9.30095 -44.16684 38940 ft 498 kts 356°
2026-05-07 22:01 -9.23147 -44.16759 38936 ft 498 kts 356°
2026-05-07 22:01 -9.16206 -44.16835 38932 ft 497 kts 356°
2026-05-07 22:02 -9.09241 -44.16910 38928 ft 496 kts 356°
2026-05-07 22:02 -9.02336 -44.16985 38926 ft 495 kts 356°
2026-05-07 22:03 -8.95416 -44.16663 38927 ft 499 kts
2026-05-07 22:03 -8.88817 -44.14407 38923 ft 506 kts 26°
2026-05-07 22:04 -8.82661 -44.10852 38923 ft 506 kts 28°
2026-05-07 22:04 -8.76576 -44.07261 38924 ft 506 kts 28°
2026-05-07 22:05 -8.70476 -44.03663 38928 ft 507 kts 28°
2026-05-07 22:05 -8.64363 -44.00061 38930 ft 507 kts 28°
2026-05-07 22:06 -8.58244 -43.96457 38929 ft 506 kts 28°
2026-05-07 22:06 -8.52114 -43.92850 38930 ft 507 kts 28°
2026-05-07 22:07 -8.46032 -43.89272 38934 ft 505 kts 28°
2026-05-07 22:07 -8.39940 -43.85689 38936 ft 506 kts 28°
2026-05-07 22:08 -8.33838 -43.82102 38938 ft 505 kts 28°
2026-05-07 22:08 -8.27770 -43.78536 38940 ft 505 kts 28°
2026-05-07 22:09 -8.21683 -43.74960 38941 ft 505 kts 28°
2026-05-07 22:09 -8.15609 -43.71394 38942 ft 504 kts 28°
2026-05-07 22:10 -8.09517 -43.67818 38950 ft 505 kts 28°
2026-05-07 22:10 -8.03453 -43.64260 38952 ft 505 kts 28°
2026-05-07 22:11 -7.97340 -43.60674 38961 ft 505 kts 28°
2026-05-07 22:11 -7.91263 -43.57110 38966 ft 504 kts 28°
2026-05-07 22:12 -7.85190 -43.53550 38959 ft 501 kts 28°
2026-05-07 22:12 -7.79143 -43.50006 38970 ft 504 kts 28°
2026-05-07 22:13 -7.73075 -43.46452 38963 ft 501 kts 28°
2026-05-07 22:13 -7.67039 -43.42915 38959 ft 501 kts 28°
2026-05-07 22:14 -7.60994 -43.39375 38947 ft 501 kts 28°
2026-05-07 22:14 -7.54978 -43.35854 38942 ft 501 kts 28°
2026-05-07 22:15 -7.48922 -43.32309 38931 ft 499 kts 28°
2026-05-07 22:15 -7.42915 -43.28795 38924 ft 499 kts 28°
2026-05-07 22:16 -7.36895 -43.25274 38920 ft 499 kts 28°
2026-05-07 22:16 -7.30905 -43.21772 38914 ft 498 kts 28°
2026-05-07 22:17 -7.24881 -43.18251 38910 ft 499 kts 28°
2026-05-07 22:17 -7.18916 -43.14766 38906 ft 498 kts 27°
2026-05-07 22:18 -7.09904 -43.09502 38897 ft 497 kts 27°
2026-05-07 22:19 -7.03907 -43.06000 38902 ft 496 kts 27°
2026-05-07 22:19 -6.97901 -43.02496 38904 ft 496 kts 27°
2026-05-07 22:20 -6.91944 -42.99019 38892 ft 495 kts 27°
2026-05-07 22:20 -6.85980 -42.95541 38888 ft 496 kts 27°
2026-05-07 22:21 -6.79978 -42.92041 38880 ft 496 kts 27°
2026-05-07 22:21 -6.74014 -42.88564 38880 ft 496 kts 27°
2026-05-07 22:22 -6.68012 -42.85066 38898 ft 496 kts 28°
2026-05-07 22:22 -6.62062 -42.81599 38903 ft 495 kts 28°
2026-05-07 22:23 -6.56056 -42.78101 38899 ft 496 kts 28°
2026-05-07 22:23 -6.50092 -42.74627 38897 ft 495 kts 28°
2026-05-07 22:24 -6.44146 -42.71166 38898 ft 493 kts 28°
2026-05-07 22:24 -6.38170 -42.67688 38903 ft 493 kts 28°
2026-05-07 22:25 -6.32237 -42.64236 38908 ft 492 kts 27°
2026-05-07 22:25 -6.26296 -42.60783 38914 ft 492 kts 28°
2026-05-07 22:26 -6.20369 -42.57338 38923 ft 491 kts 28°
2026-05-07 22:26 -6.14442 -42.53895 38924 ft 493 kts 28°
2026-05-07 22:27 -6.08493 -42.50439 38923 ft 491 kts 28°
2026-05-07 22:27 -6.02551 -42.46988 38920 ft 491 kts 28°
2026-05-07 22:28 -5.96663 -42.43569 38921 ft 490 kts 28°
2026-05-07 22:28 -5.90743 -42.40133 38923 ft 490 kts 28°
2026-05-07 22:29 -5.84830 -42.36701 38924 ft 491 kts 28°
2026-05-07 22:29 -5.78880 -42.33248 38915 ft 490 kts 28°
2026-05-07 22:30 -5.72968 -42.29819 38912 ft 490 kts 28°
2026-05-07 22:30 -5.67032 -42.26377 38911 ft 490 kts 28°
2026-05-07 22:31 -5.61090 -42.22932 38911 ft 490 kts 28°
2026-05-07 22:31 -5.55182 -42.19507 38910 ft 491 kts 28°
2026-05-07 22:32 -5.49270 -42.16081 38910 ft 491 kts 28°
2026-05-07 22:32 -5.43314 -42.12630 38908 ft 491 kts 28°
2026-05-07 22:33 -5.37381 -42.09193 38911 ft 490 kts 28°
2026-05-07 22:33 -5.31478 -42.05775 38918 ft 489 kts 28°
2026-05-07 22:34 -5.25575 -42.02352 38934 ft 491 kts 28°
2026-05-07 22:34 -5.19613 -41.98897 38941 ft 492 kts 28°
2026-05-07 22:35 -5.13668 -41.95451 38941 ft 490 kts 28°
2026-05-07 22:35 -5.07736 -41.92014 38934 ft 492 kts 28°
2026-05-07 22:36 -5.01805 -41.88579 38928 ft 490 kts 28°
2026-05-07 22:36 -4.95903 -41.85161 38923 ft 490 kts 28°
2026-05-07 22:37 -4.89974 -41.81728 38928 ft 490 kts 28°
2026-05-07 22:37 -4.84061 -41.78306 38940 ft 490 kts 28°
2026-05-07 22:38 -4.78146 -41.74882 38933 ft 490 kts 28°
2026-05-07 22:38 -4.72252 -41.71472 38942 ft 491 kts 28°
2026-05-07 22:39 -4.66335 -41.68050 38949 ft 490 kts 28°
2026-05-07 22:39 -4.60385 -41.64611 38960 ft 490 kts 28°
2026-05-07 22:40 -4.54491 -41.61205 38970 ft 490 kts 28°
2026-05-07 22:40 -4.48562 -41.57778 38983 ft 491 kts 28°
2026-05-07 22:41 -4.42638 -41.54356 38983 ft 491 kts 28°
2026-05-07 22:41 -4.36706 -41.50929 38980 ft 491 kts 28°
2026-05-07 22:42 -4.30778 -41.47505 38962 ft 491 kts 28°
2026-05-07 22:42 -4.24859 -41.44088 38955 ft 489 kts 28°
2026-05-07 22:43 -4.18937 -41.40669 38957 ft 491 kts 29°
2026-05-07 22:43 -4.12990 -41.37236 38962 ft 492 kts 29°
2026-05-07 22:44 -4.07067 -41.33817 38965 ft 491 kts 29°
2026-05-07 22:44 -4.01106 -41.30378 38962 ft 492 kts 29°
2026-05-07 22:45 -3.95177 -41.26957 38977 ft 491 kts 29°
2026-05-07 22:45 -3.89244 -41.23534 38994 ft 491 kts 29°
2026-05-07 22:46 -3.83317 -41.20116 39008 ft 489 kts 29°
2026-05-07 22:46 -3.77405 -41.16707 39024 ft 489 kts 29°
2026-05-07 22:47 -3.71514 -41.13310 39026 ft 488 kts 29°
2026-05-07 22:47 -3.65618 -41.09917 39016 ft 488 kts 29°
2026-05-07 22:48 -3.59693 -41.06511 38991 ft 487 kts 29°
2026-05-07 22:48 -3.53781 -41.03110 38977 ft 488 kts 29°
2026-05-07 22:49 -3.47905 -40.99732 38957 ft 486 kts 29°
2026-05-07 22:49 -3.42021 -40.96350 38951 ft 485 kts 29°
2026-05-07 22:50 -3.36172 -40.92988 38951 ft 485 kts 29°
2026-05-07 22:50 -3.30324 -40.89627 38945 ft 484 kts 29°
2026-05-07 22:51 -3.24470 -40.86257 38938 ft 483 kts 29°
2026-05-07 22:51 -3.18660 -40.82909 38932 ft 483 kts 29°
2026-05-07 22:52 -3.12815 -40.79541 38927 ft 484 kts 29°
2026-05-07 22:52 -3.06964 -40.76174 38917 ft 484 kts 29°
2026-05-07 22:53 -3.01098 -40.72800 38917 ft 483 kts 30°
2026-05-07 22:53 -2.95272 -40.69450 38915 ft 483 kts 29°
2026-05-07 22:54 -2.89413 -40.66081 38914 ft 483 kts 29°
2026-05-07 22:54 -2.83602 -40.62740 38914 ft 483 kts 30°
2026-05-07 22:55 -2.77728 -40.59362 38913 ft 483 kts 30°
2026-05-07 22:55 -2.71887 -40.56005 38912 ft 484 kts 30°
2026-05-07 22:56 -2.66043 -40.52646 38916 ft 483 kts 30°
2026-05-07 22:56 -2.60217 -40.49298 38918 ft 483 kts 29°
2026-05-07 22:57 -2.54353 -40.45929 38919 ft 483 kts 30°
2026-05-07 22:57 -2.48537 -40.42587 38922 ft 484 kts 30°
2026-05-07 22:58 -2.42677 -40.39220 38925 ft 484 kts 29°
2026-05-07 22:58 -2.36839 -40.35867 38928 ft 484 kts 30°
2026-05-07 22:59 -2.30973 -40.32497 38929 ft 483 kts 29°
2026-05-07 22:59 -2.25129 -40.29140 38930 ft 483 kts 30°
2026-05-07 23:00 -2.19268 -40.25774 38930 ft 483 kts 30°
2026-05-07 23:00 -2.13433 -40.22424 38930 ft 483 kts 30°
2026-05-07 23:01 -2.07588 -40.19068 38930 ft 483 kts 30°
2026-05-07 23:01 -2.01730 -40.15705 38930 ft 484 kts 30°
2026-05-07 23:02 -1.95903 -40.12360 38934 ft 485 kts 30°
2026-05-07 23:02 -1.90005 -40.08974 38931 ft 485 kts 30°
2026-05-07 23:03 -1.84154 -40.05615 38932 ft 483 kts 30°
2026-05-07 23:03 -1.78301 -40.02256 38931 ft 483 kts 30°
2026-05-07 23:04 -1.72463 -39.98906 38930 ft 482 kts 30°
2026-05-07 23:04 -1.69557 -39.97237 38920 ft 465 kts 30°
2026-05-07 23:04 -1.66821 -39.95667 38924 ft 450 kts 29°
2026-05-07 23:04 -1.64133 -39.94124 38920 ft 437 kts 29°
2026-05-07 23:05 -1.61523 -39.92627 38914 ft 424 kts 29°
2026-05-07 23:05 -1.58997 -39.91177 38915 ft 411 kts 29°
2026-05-07 23:05 -1.56531 -39.89762 38915 ft 399 kts 29°
2026-05-07 23:05 -1.54168 -39.88406 38911 ft 388 kts 29°
2026-05-07 23:06 -1.51845 -39.87074 38909 ft 377 kts 29°
2026-05-07 23:06 -1.47401 -39.84524 38904 ft 356 kts 29°
2026-05-07 23:07 -1.43223 -39.82127 38809 ft 339 kts 29°
2026-05-07 23:07 -1.41186 -39.80959 38468 ft 338 kts 30°
2026-05-07 23:07 -1.39127 -39.79778 37989 ft 342 kts 30°
2026-05-07 23:07 -1.37030 -39.78576 37622 ft 343 kts 30°
2026-05-07 23:08 -1.34971 -39.77394 37512 ft 338 kts 30°
2026-05-07 23:08 -1.30977 -39.75103 37384 ft 328 kts 30°
2026-05-07 23:08 -1.28973 -39.73953 37061 ft 330 kts 30°
2026-05-07 23:09 -1.26971 -39.72805 36666 ft 335 kts 30°
2026-05-07 23:09 -1.24956 -39.71650 36427 ft 335 kts 30°
2026-05-07 23:09 -1.22938 -39.70492 36377 ft 330 kts 30°
2026-05-07 23:10 -1.18996 -39.68231 36276 ft 322 kts 30°
2026-05-07 23:10 -1.17054 -39.67117 36019 ft 321 kts 30°
2026-05-07 23:10 -1.15105 -39.65998 35700 ft 333 kts 30°
2026-05-07 23:11 -1.11027 -39.63659 36021 ft 336 kts 30°
2026-05-07 23:11 -1.08972 -39.62481 36314 ft 334 kts 30°
2026-05-07 23:11 -1.06972 -39.61334 36598 ft 331 kts 30°
2026-05-07 23:11 -1.04948 -39.60173 36891 ft 328 kts 30°
2026-05-07 23:12 -1.02980 -39.59044 36964 ft 331 kts 30°
2026-05-07 23:12 -1.00952 -39.57881 36782 ft 340 kts 30°
2026-05-07 23:12 -0.98875 -39.56691 36910 ft 340 kts 30°
2026-05-07 23:13 -0.94692 -39.54291 36919 ft 350 kts 30°
2026-05-07 23:13 -0.90415 -39.51839 36933 ft 361 kts 30°
2026-05-07 23:14 -0.85982 -39.49297 36942 ft 374 kts 30°
2026-05-07 23:14 -0.81341 -39.46635 36944 ft 390 kts 30°
2026-05-07 23:15 -0.76537 -39.43881 36945 ft 407 kts 30°
2026-05-07 23:15 -0.71507 -39.40997 36945 ft 424 kts 30°
2026-05-07 23:16 -0.66275 -39.37997 36940 ft 439 kts 30°
2026-05-07 23:16 -0.60885 -39.34906 36940 ft 455 kts 30°
2026-05-07 23:17 -0.55282 -39.31694 36941 ft 470 kts 30°
2026-05-07 23:17 -0.49520 -39.28390 36946 ft 486 kts 30°
2026-05-07 23:18 -0.43523 -39.24952 36938 ft 501 kts 30°
2026-05-07 23:18 -0.37456 -39.21474 36938 ft 507 kts 30°
2026-05-07 23:19 -0.31332 -39.17963 36939 ft 506 kts 30°
2026-05-07 23:19 -0.25184 -39.14439 36939 ft 507 kts 30°
2026-05-07 23:20 -0.19014 -39.10901 36938 ft 507 kts 30°
2026-05-07 23:20 -0.12892 -39.07392 36941 ft 507 kts 30°
2026-05-07 23:21 -0.06739 -39.03864 36939 ft 507 kts 30°
2026-05-07 23:21 -0.00643 -39.00370 36939 ft 506 kts 30°
2026-05-07 23:22 0.05631 -38.97015 36938 ft 507 kts 27°
2026-05-07 23:22 0.11916 -38.93788 36937 ft 507 kts 27°
2026-05-07 23:23 0.18203 -38.90547 36935 ft 507 kts 28°
2026-05-07 23:23 0.24494 -38.87297 37476 ft 502 kts 28°
2026-05-07 23:23 0.27544 -38.85719 38408 ft 490 kts 28°
2026-05-07 23:24 0.30579 -38.84149 38934 ft 487 kts 28°
2026-05-07 23:24 0.36541 -38.81062 38928 ft 479 kts 27°
2026-05-07 23:25 0.42447 -38.78002 38926 ft 479 kts 27°
2026-05-07 23:25 0.48409 -38.74913 38926 ft 479 kts 27°
2026-05-07 23:26 0.54317 -38.71852 38925 ft 482 kts 28°
2026-05-07 23:26 0.60315 -38.68744 38925 ft 483 kts 28°
2026-05-07 23:27 0.69311 -38.64081 38927 ft 487 kts 27°
2026-05-07 23:27 0.75337 -38.60958 38923 ft 482 kts 28°
2026-05-07 23:28 0.81280 -38.57878 38924 ft 479 kts 28°
2026-05-07 23:28 0.87189 -38.54815 38920 ft 481 kts 28°
2026-05-07 23:29 0.93135 -38.51732 38925 ft 481 kts 27°
2026-05-07 23:29 0.99131 -38.48625 38928 ft 487 kts 28°
2026-05-07 23:30 1.05140 -38.45510 38918 ft 485 kts 28°
2026-05-07 23:30 1.11111 -38.42415 38914 ft 481 kts 28°
2026-05-07 23:31 1.17013 -38.39354 38912 ft 477 kts 27°
2026-05-07 23:31 1.22919 -38.36292 38918 ft 477 kts 27°
2026-05-07 23:32 1.28838 -38.33223 38922 ft 476 kts 27°
2026-05-07 23:32 1.34711 -38.30178 38928 ft 477 kts 27°
2026-05-07 23:33 1.40625 -38.27111 38925 ft 476 kts 27°
2026-05-07 23:33 1.46538 -38.24045 38926 ft 478 kts 27°
2026-05-07 23:34 1.52447 -38.20981 38928 ft 477 kts 27°
2026-05-07 23:34 1.58324 -38.17933 38927 ft 478 kts 27°
2026-05-07 23:35 1.64263 -38.14852 38928 ft 478 kts 27°
2026-05-07 23:35 1.70218 -38.11763 38927 ft 481 kts 27°
2026-05-07 23:36 1.76158 -38.08682 38929 ft 483 kts 27°
2026-05-07 23:36 1.82171 -38.05563 38926 ft 481 kts 27°
2026-05-07 23:37 1.88103 -38.02485 38928 ft 479 kts 27°
2026-05-07 23:37 1.94053 -37.99398 38930 ft 480 kts 27°
2026-05-07 23:38 2.00010 -37.96307 38931 ft 480 kts 27°
2026-05-07 23:38 2.05988 -37.93205 38929 ft 480 kts 27°
2026-05-07 23:39 2.11926 -37.90123 38930 ft 480 kts 27°
2026-05-07 23:39 2.17879 -37.87033 38930 ft 480 kts 27°
2026-05-07 23:40 2.23826 -37.83946 38930 ft 481 kts 27°
2026-05-07 23:40 2.29770 -37.80860 38930 ft 481 kts 27°
2026-05-07 23:41 2.35769 -37.77746 38930 ft 481 kts 27°
2026-05-07 23:41 2.41741 -37.74645 38931 ft 485 kts 27°
2026-05-07 23:42 2.47772 -37.71514 38930 ft 487 kts 27°
2026-05-07 23:42 2.53783 -37.68391 38931 ft 488 kts 27°
2026-05-07 23:43 2.59824 -37.65254 38930 ft 488 kts 27°
2026-05-07 23:43 2.65896 -37.62100 38930 ft 487 kts 27°
2026-05-07 23:44 2.71927 -37.58967 38931 ft 488 kts 27°
2026-05-07 23:44 2.77981 -37.55821 38931 ft 489 kts 27°
2026-05-07 23:45 2.83997 -37.52696 38930 ft 488 kts 27°
2026-05-07 23:45 2.90085 -37.49532 38927 ft 489 kts 27°
2026-05-07 23:46 2.96127 -37.46392 38921 ft 490 kts 27°
2026-05-07 23:46 3.02181 -37.43246 38921 ft 489 kts 27°
2026-05-07 23:47 3.08257 -37.40089 38923 ft 488 kts 27°
2026-05-07 23:47 3.14293 -37.36951 38921 ft 488 kts 27°
2026-05-07 23:48 3.20337 -37.33810 38922 ft 487 kts 27°
2026-05-07 23:48 3.26415 -37.30650 38923 ft 490 kts 27°
2026-05-07 23:49 3.32465 -37.27504 38928 ft 489 kts 27°
2026-05-07 23:49 3.38507 -37.24362 38938 ft 489 kts 27°
2026-05-07 23:50 3.44583 -37.21202 38944 ft 490 kts 27°
2026-05-07 23:50 3.50656 -37.18043 38945 ft 490 kts 27°
2026-05-07 23:51 3.56698 -37.14899 38937 ft 489 kts 27°
2026-05-07 23:51 3.62809 -37.11720 38940 ft 489 kts 27°
2026-05-07 23:52 3.68857 -37.08573 38943 ft 489 kts 27°
2026-05-07 23:52 3.74895 -37.05430 38943 ft 490 kts 27°
2026-05-07 23:53 3.81003 -37.02250 38943 ft 490 kts 27°
2026-05-07 23:53 3.87035 -36.99110 38946 ft 489 kts 27°
2026-05-07 23:54 3.93118 -36.95942 38949 ft 490 kts 27°
2026-05-07 23:54 3.99145 -36.92803 38947 ft 489 kts 27°
2026-05-07 23:55 4.05216 -36.89640 38956 ft 489 kts 27°
2026-05-07 23:55 4.11271 -36.86486 38949 ft 490 kts 27°
2026-05-07 23:56 4.17334 -36.83327 38945 ft 490 kts 27°
2026-05-07 23:56 4.23419 -36.80155 38951 ft 490 kts 27°
2026-05-07 23:57 4.29485 -36.76993 38950 ft 490 kts 26°
2026-05-07 23:57 4.35566 -36.73823 38944 ft 490 kts 26°
2026-05-07 23:58 4.41625 -36.70663 38942 ft 490 kts 27°
2026-05-07 23:58 4.47681 -36.67505 38943 ft 490 kts 26°
2026-05-07 23:59 4.53758 -36.64334 38945 ft 490 kts 26°
2026-05-07 23:59 4.59807 -36.61179 38945 ft 491 kts 26°
2026-05-08 00:00 4.65896 -36.58001 38947 ft 491 kts 26°
2026-05-08 00:00 4.71953 -36.54839 38946 ft 490 kts 26°
2026-05-08 00:01 4.78037 -36.51663 38947 ft 490 kts 26°
2026-05-08 00:01 4.84100 -36.48497 38948 ft 492 kts 26°
2026-05-08 00:02 4.90197 -36.45313 38939 ft 489 kts 27°
2026-05-08 00:02 4.96251 -36.42151 38948 ft 492 kts 27°
2026-05-08 00:03 5.02334 -36.38972 38953 ft 492 kts 27°
2026-05-08 00:03 5.08408 -36.35798 38953 ft 492 kts 26°
2026-05-08 00:04 5.14522 -36.32602 38951 ft 498 kts 27°
2026-05-08 00:04 5.20719 -36.29362 38953 ft 505 kts 27°
2026-05-08 00:05 5.27017 -36.26069 38953 ft 511 kts 27°
2026-05-08 00:05 5.33344 -36.22759 38957 ft 515 kts 26°
2026-05-08 00:06 5.39711 -36.19428 38963 ft 517 kts 26°
2026-05-08 00:06 5.46153 -36.16057 38957 ft 519 kts 26°
2026-05-08 00:07 5.52538 -36.12714 38961 ft 519 kts 26°
2026-05-08 00:07 5.58963 -36.09350 38952 ft 518 kts 26°
2026-05-08 00:08 5.65351 -36.06005 38943 ft 517 kts 26°
2026-05-08 00:08 5.71729 -36.02664 38944 ft 518 kts 26°
2026-05-08 00:09 5.78126 -35.99312 38948 ft 519 kts 26°
2026-05-08 00:09 5.84541 -35.95947 38946 ft 518 kts 26°
2026-05-08 00:10 5.90943 -35.92588 38949 ft 519 kts 26°
2026-05-08 00:10 5.97350 -35.89225 38951 ft 517 kts 25°
2026-05-08 00:11 6.03721 -35.85880 38953 ft 516 kts 25°
2026-05-08 00:11 6.10108 -35.82526 38952 ft 516 kts 26°
2026-05-08 00:12 6.16481 -35.79178 38952 ft 516 kts 26°
2026-05-08 00:12 6.22849 -35.75832 38949 ft 517 kts 26°
2026-05-08 00:13 6.29207 -35.72491 38957 ft 518 kts 26°
2026-05-08 00:13 6.35627 -35.69116 38952 ft 518 kts 26°
2026-05-08 00:14 6.42031 -35.65748 38952 ft 518 kts 26°
2026-05-08 00:14 6.48401 -35.62397 38954 ft 518 kts 26°
2026-05-08 00:15 6.54812 -35.59023 38953 ft 518 kts 26°
2026-05-08 00:15 6.61174 -35.55675 38957 ft 518 kts 26°
2026-05-08 00:16 6.67611 -35.52285 38956 ft 518 kts 26°
2026-05-08 00:16 6.74008 -35.48917 38952 ft 519 kts 26°
2026-05-08 00:17 6.80396 -35.45552 38955 ft 519 kts 26°
2026-05-08 00:17 6.86795 -35.42180 38958 ft 519 kts 26°
2026-05-08 00:18 6.93185 -35.38811 38954 ft 518 kts 25°
2026-05-08 00:18 6.99621 -35.35418 38954 ft 519 kts 26°
2026-05-08 00:19 7.06018 -35.32044 38951 ft 520 kts 26°
2026-05-08 00:19 7.12453 -35.28648 38957 ft 520 kts 26°
2026-05-08 00:20 7.18845 -35.25275 38967 ft 520 kts 26°
2026-05-08 00:20 7.25314 -35.21860 38966 ft 520 kts 25°
2026-05-08 00:21 7.31723 -35.18475 38970 ft 520 kts 26°
2026-05-08 00:21 7.38132 -35.15090 38969 ft 519 kts 25°
2026-05-08 00:22 7.44545 -35.11700 38971 ft 519 kts 25°
2026-05-08 00:22 7.50945 -35.08318 38971 ft 519 kts 25°
2026-05-08 00:23 7.57357 -35.04927 38975 ft 520 kts 25°
2026-05-08 00:23 7.63796 -35.01521 38970 ft 519 kts 25°
2026-05-08 00:24 7.70390 -34.98547 39127 ft 517 kts 18°
2026-05-08 00:24 7.73751 -34.97251 39245 ft 517 kts 18°
2026-05-08 00:24 7.77096 -34.95965 39371 ft 517 kts 18°
2026-05-08 00:25 7.80466 -34.94668 39541 ft 515 kts 18°
2026-05-08 00:25 7.83816 -34.93377 39697 ft 514 kts 18°
2026-05-08 00:25 7.87166 -34.92086 39802 ft 514 kts 18°
2026-05-08 00:25 7.90509 -34.90797 39909 ft 514 kts 18°
2026-05-08 00:26 7.93877 -34.89498 40012 ft 513 kts 18°
2026-05-08 00:26 7.97207 -34.88213 40093 ft 513 kts 18°
2026-05-08 00:26 8.03881 -34.85636 40206 ft 513 kts 18°
2026-05-08 00:27 8.10581 -34.83047 40286 ft 514 kts 18°
2026-05-08 00:27 8.17286 -34.80456 40427 ft 513 kts 18°
2026-05-08 00:28 8.23960 -34.77875 40512 ft 514 kts 18°
2026-05-08 00:28 8.30661 -34.75283 40583 ft 514 kts 18°
2026-05-08 00:29 8.37324 -34.72705 40679 ft 514 kts 18°
2026-05-08 00:29 8.44032 -34.70108 40771 ft 514 kts 18°
2026-05-08 00:30 8.50729 -34.67514 40839 ft 513 kts 18°
2026-05-08 00:30 8.57305 -34.64584 40911 ft 515 kts 23°
2026-05-08 00:31 8.63751 -34.61380 40934 ft 515 kts 23°
2026-05-08 00:31 8.70199 -34.58170 40965 ft 515 kts 23°
2026-05-08 00:32 8.76628 -34.54969 40958 ft 515 kts 23°
2026-05-08 00:32 8.83038 -34.51776 40958 ft 515 kts 23°
2026-05-08 00:33 8.89506 -34.48553 40958 ft 515 kts 23°
2026-05-08 00:33 8.95954 -34.45338 40961 ft 515 kts 23°
2026-05-08 00:34 9.02395 -34.42126 40972 ft 515 kts 23°
2026-05-08 00:34 9.08813 -34.38925 40969 ft 515 kts 23°
2026-05-08 00:35 9.15249 -34.35712 40966 ft 515 kts 23°
2026-05-08 00:35 9.21703 -34.32490 40954 ft 515 kts 23°
2026-05-08 00:36 9.28133 -34.29278 40959 ft 515 kts 23°
2026-05-08 00:36 9.34569 -34.26062 40965 ft 514 kts 23°
2026-05-08 00:37 9.41017 -34.22838 40968 ft 515 kts 23°
2026-05-08 00:38 9.50639 -34.18026 40970 ft 514 kts 23°
2026-05-08 00:38 9.57061 -34.14811 40970 ft 514 kts 23°
2026-05-08 00:39 9.63507 -34.11584 40970 ft 514 kts 23°
2026-05-08 00:39 9.69896 -34.08384 40970 ft 514 kts 23°
2026-05-08 00:40 9.76345 -34.05152 40971 ft 514 kts 23°
2026-05-08 00:40 9.82771 -34.01931 40971 ft 515 kts 23°
2026-05-08 00:41 9.89168 -33.98723 40971 ft 515 kts 23°
2026-05-08 00:41 9.95615 -33.95488 40971 ft 514 kts 23°
2026-05-08 00:42 10.02056 -33.92255 40972 ft 514 kts 23°
2026-05-08 00:42 10.08485 -33.89027 40974 ft 514 kts 23°
2026-05-08 00:43 10.14897 -33.85805 40976 ft 514 kts 23°
2026-05-08 00:43 10.21314 -33.82579 40977 ft 515 kts 23°
2026-05-08 00:44 10.27726 -33.79355 40980 ft 515 kts 23°
2026-05-08 00:44 10.34166 -33.76115 40980 ft 515 kts 23°
2026-05-08 00:45 10.40612 -33.72870 40980 ft 514 kts 23°
2026-05-08 00:45 10.47036 -33.69635 40982 ft 514 kts 23°
2026-05-08 00:46 10.53445 -33.66407 40984 ft 514 kts 23°
2026-05-08 00:46 10.59868 -33.63170 40984 ft 514 kts 23°
2026-05-08 00:47 10.66284 -33.59934 40988 ft 514 kts 23°
2026-05-08 00:47 10.72726 -33.56684 40990 ft 515 kts 23°
2026-05-08 00:48 10.79148 -33.53442 40994 ft 515 kts 23°
2026-05-08 00:48 10.85585 -33.50191 40993 ft 514 kts 22°
2026-05-08 00:49 10.92014 -33.46943 40995 ft 514 kts 22°
2026-05-08 00:49 10.98456 -33.43687 40996 ft 514 kts 22°
2026-05-08 00:50 11.04875 -33.40441 40998 ft 515 kts 22°
2026-05-08 00:50 11.11272 -33.37204 40999 ft 514 kts 22°
2026-05-08 00:51 11.17717 -33.33941 40986 ft 514 kts 23°
2026-05-08 00:51 11.24143 -33.30687 40989 ft 514 kts 23°
2026-05-08 00:52 11.30570 -33.27430 40989 ft 514 kts 23°
2026-05-08 00:52 11.36964 -33.24188 40990 ft 514 kts 23°
2026-05-08 00:53 11.43411 -33.20918 40990 ft 513 kts 23°
2026-05-08 00:53 11.49831 -33.17659 40988 ft 514 kts 22°
2026-05-08 00:54 11.56212 -33.14420 40992 ft 514 kts 22°
2026-05-08 00:54 11.62672 -33.11138 40990 ft 514 kts 22°
2026-05-08 00:55 11.69072 -33.07884 40990 ft 514 kts 23°
2026-05-08 00:55 11.75510 -33.04610 40991 ft 514 kts 23°
2026-05-08 00:56 11.81911 -33.01353 40993 ft 514 kts 22°
2026-05-08 00:56 11.88325 -32.98088 40991 ft 514 kts 23°
2026-05-08 00:57 11.94721 -32.94830 40992 ft 514 kts 23°
2026-05-08 00:57 12.01136 -32.91561 40993 ft 514 kts 22°
2026-05-08 00:58 12.07538 -32.88296 40992 ft 514 kts 22°
2026-05-08 00:58 12.13948 -32.85026 40998 ft 513 kts 22°
2026-05-08 00:59 12.20352 -32.81757 40999 ft 514 kts 23°
2026-05-08 00:59 12.26775 -32.78477 40998 ft 513 kts 23°
2026-05-08 01:00 12.33203 -32.75191 41001 ft 513 kts 23°
2026-05-08 01:00 12.39574 -32.71934 41001 ft 513 kts 23°
2026-05-08 01:01 12.45976 -32.68659 41005 ft 513 kts 23°
2026-05-08 01:01 12.52368 -32.65387 41004 ft 513 kts 23°
2026-05-08 01:02 12.58741 -32.62123 41009 ft 513 kts 23°
2026-05-08 01:02 12.65130 -32.58849 41008 ft 513 kts 23°
2026-05-08 01:03 12.71521 -32.55573 41009 ft 513 kts 23°
2026-05-08 01:03 12.77923 -32.52289 41011 ft 512 kts 23°
2026-05-08 01:04 12.84281 -32.49025 41012 ft 512 kts 23°
2026-05-08 01:04 12.90677 -32.45740 41011 ft 512 kts 23°
2026-05-08 01:05 12.97057 -32.42461 41015 ft 512 kts 23°
2026-05-08 01:05 13.03429 -32.39185 41016 ft 512 kts 23°
2026-05-08 01:06 13.09799 -32.35908 41016 ft 512 kts 23°
2026-05-08 01:06 13.16165 -32.32630 41011 ft 511 kts 23°
2026-05-08 01:07 13.22553 -32.29340 41009 ft 511 kts 23°
2026-05-08 01:07 13.28933 -32.26051 41010 ft 510 kts 23°
2026-05-08 01:08 13.35253 -32.22792 41009 ft 510 kts 23°
2026-05-08 01:08 13.41622 -32.19505 41011 ft 509 kts 24°
2026-05-08 01:09 13.47927 -32.16250 41011 ft 509 kts 24°
2026-05-08 01:09 13.54271 -32.12972 41010 ft 508 kts 24°
2026-05-08 01:10 13.60579 -32.09712 41009 ft 508 kts 24°
2026-05-08 01:10 13.66928 -32.06428 41008 ft 508 kts 24°
2026-05-08 01:11 13.73230 -32.03166 41007 ft 507 kts 24°
2026-05-08 01:11 13.79574 -31.99881 41008 ft 507 kts 24°
2026-05-08 01:12 13.85877 -31.96615 41006 ft 507 kts 24°
2026-05-08 01:12 13.92168 -31.93353 41009 ft 507 kts 24°
2026-05-08 01:13 13.98480 -31.90078 41013 ft 506 kts 24°
2026-05-08 01:13 14.04772 -31.86811 41011 ft 506 kts 24°
2026-05-08 01:14 14.11096 -31.83526 41012 ft 505 kts 24°
2026-05-08 01:14 14.17376 -31.80261 41006 ft 504 kts 24°
2026-05-08 01:15 14.23631 -31.77008 41002 ft 503 kts 24°
2026-05-08 01:15 14.29864 -31.73764 41001 ft 503 kts 24°
2026-05-08 01:16 14.36105 -31.70514 41000 ft 503 kts 24°
2026-05-08 01:16 14.42355 -31.67257 41003 ft 502 kts 24°
2026-05-08 01:17 14.48629 -31.63986 41005 ft 502 kts 24°
2026-05-08 01:17 14.54833 -31.60749 41006 ft 501 kts 24°
2026-05-08 01:18 14.61057 -31.57499 41008 ft 500 kts 24°
2026-05-08 01:18 14.67269 -31.54254 41010 ft 499 kts 24°
2026-05-08 01:19 14.73472 -31.51011 41009 ft 499 kts 24°
2026-05-08 01:19 14.79715 -31.47746 41004 ft 500 kts 24°
2026-05-08 01:20 14.85904 -31.44506 41002 ft 499 kts 24°
2026-05-08 01:20 14.92014 -31.41303 40999 ft 479 kts 24°
2026-05-08 01:21 14.97883 -31.38225 41011 ft 471 kts 24°
2026-05-08 01:21 15.03782 -31.35133 41008 ft 475 kts 24°
2026-05-08 01:22 15.09635 -31.32061 41012 ft 473 kts 24°
2026-05-08 01:22 15.15524 -31.28969 41009 ft 473 kts 24°
2026-05-08 01:23 15.21398 -31.25883 41008 ft 473 kts 24°
2026-05-08 01:23 15.27275 -31.22793 41015 ft 472 kts 24°
2026-05-08 01:24 15.33155 -31.19700 41019 ft 472 kts 24°
2026-05-08 01:24 15.39043 -31.16600 41027 ft 471 kts 24°
2026-05-08 01:25 15.44866 -31.13533 41027 ft 471 kts 24°
2026-05-08 01:25 15.50728 -31.10443 41023 ft 471 kts 24°
2026-05-08 01:26 15.56558 -31.07368 41019 ft 470 kts 24°
2026-05-08 01:26 15.62414 -31.04278 41031 ft 470 kts 24°
2026-05-08 01:27 15.68245 -31.01198 41027 ft 469 kts 24°
2026-05-08 01:27 15.74102 -30.98103 41026 ft 470 kts 24°
2026-05-08 01:28 15.79896 -30.95040 41030 ft 468 kts 24°
2026-05-08 01:28 15.85708 -30.91965 41022 ft 468 kts 24°
2026-05-08 01:29 15.91503 -30.88896 41015 ft 467 kts 24°
2026-05-08 01:29 15.97327 -30.85811 41013 ft 468 kts 24°
2026-05-08 01:30 16.03134 -30.82733 41011 ft 468 kts 24°
2026-05-08 01:30 16.08956 -30.79644 41012 ft 467 kts 24°
2026-05-08 01:31 16.14748 -30.76569 41017 ft 468 kts 24°
2026-05-08 01:31 16.20555 -30.73485 41020 ft 468 kts 24°
2026-05-08 01:32 16.26359 -30.70399 41020 ft 467 kts 24°
2026-05-08 01:32 16.32149 -30.67320 41021 ft 468 kts 24°
2026-05-08 01:33 16.37961 -30.64226 41022 ft 467 kts 24°
2026-05-08 01:33 16.43733 -30.61152 41023 ft 467 kts 24°
2026-05-08 01:34 16.49519 -30.58069 41023 ft 468 kts 24°
2026-05-08 01:34 16.55265 -30.55004 41023 ft 467 kts 24°
2026-05-08 01:35 16.61044 -30.51920 41021 ft 467 kts 24°
2026-05-08 01:35 16.66840 -30.48824 41021 ft 467 kts 25°
2026-05-08 01:36 16.72659 -30.45714 41019 ft 466 kts 25°
2026-05-08 01:36 16.78456 -30.42614 41018 ft 466 kts 24°
2026-05-08 01:37 16.84213 -30.39533 41014 ft 465 kts 25°
2026-05-08 01:37 16.89978 -30.36446 41013 ft 466 kts 25°
2026-05-08 01:38 16.95760 -30.33347 41008 ft 466 kts 25°
2026-05-08 01:38 17.01587 -30.30223 41009 ft 466 kts 25°
2026-05-08 01:39 17.07321 -30.27145 41001 ft 460 kts 25°
2026-05-08 01:39 17.10150 -30.25624 40547 ft 451 kts 25°
2026-05-08 01:39 17.12953 -30.24118 39401 ft 454 kts 25°
2026-05-08 01:39 17.15732 -30.22626 38996 ft 453 kts 25°
2026-05-08 01:40 17.18558 -30.21107 39017 ft 458 kts 25°
2026-05-08 01:40 17.24315 -30.18013 39016 ft 466 kts 25°
2026-05-08 01:41 17.30076 -30.14913 39014 ft 467 kts 25°
2026-05-08 01:41 17.35885 -30.11784 39015 ft 468 kts 25°
2026-05-08 01:42 17.41669 -30.08667 39013 ft 466 kts 25°
2026-05-08 01:42 17.47438 -30.05556 39013 ft 466 kts 25°
2026-05-08 01:43 17.53208 -30.02442 39013 ft 466 kts 25°
2026-05-08 01:43 17.58994 -29.99317 39013 ft 467 kts 25°
2026-05-08 01:44 17.64791 -29.96184 39014 ft 468 kts 25°
2026-05-08 01:44 17.70616 -29.93034 39012 ft 468 kts 25°
2026-05-08 01:45 17.76385 -29.89911 39012 ft 467 kts 25°
2026-05-08 01:45 17.82157 -29.86785 39011 ft 467 kts 25°
2026-05-08 01:46 17.87959 -29.83639 39010 ft 465 kts 25°
2026-05-08 01:46 17.93710 -29.80520 39011 ft 468 kts 25°
2026-05-08 01:47 17.99490 -29.77383 39010 ft 468 kts 25°
2026-05-08 01:47 18.05292 -29.74231 39011 ft 468 kts 25°
2026-05-08 01:48 18.13983 -29.69505 39018 ft 468 kts 25°
2026-05-08 01:48 18.19765 -29.66358 39019 ft 467 kts 25°
2026-05-08 01:49 18.25527 -29.63219 39023 ft 467 kts 25°
2026-05-08 01:49 18.31357 -29.60042 39028 ft 473 kts 25°
2026-05-08 01:50 18.37264 -29.56821 39031 ft 482 kts 25°
2026-05-08 01:50 18.43258 -29.53549 39029 ft 490 kts 25°
2026-05-08 01:51 18.49334 -29.50230 39029 ft 494 kts 25°
2026-05-08 01:51 18.55447 -29.46888 39031 ft 495 kts 25°
2026-05-08 01:52 18.61536 -29.43554 39030 ft 478 kts 25°
2026-05-08 01:52 18.64413 -29.41976 39028 ft 466 kts 25°
2026-05-08 01:52 18.67291 -29.40399 39028 ft 464 kts 25°
2026-05-08 01:53 18.73046 -29.37245 39030 ft 468 kts 25°
2026-05-08 01:53 18.78837 -29.34068 39027 ft 466 kts 25°
2026-05-08 01:54 18.84641 -29.30882 39026 ft 467 kts 25°
2026-05-08 01:54 18.90405 -29.27715 39028 ft 467 kts 25°
2026-05-08 01:55 18.96177 -29.24542 39029 ft 468 kts 25°
2026-05-08 01:55 19.01947 -29.21366 39028 ft 467 kts 25°
2026-05-08 01:56 19.07720 -29.18188 39032 ft 467 kts 25°
2026-05-08 01:56 19.13490 -29.15007 39036 ft 467 kts 25°
2026-05-08 01:57 19.19270 -29.11820 39034 ft 468 kts 25°
2026-05-08 01:57 19.25056 -29.08625 39038 ft 468 kts 25°
2026-05-08 01:58 19.30803 -29.05450 39032 ft 468 kts 25°
2026-05-08 01:58 19.36615 -29.02237 39037 ft 468 kts 25°
2026-05-08 01:59 19.42377 -28.99048 39036 ft 467 kts 24°
2026-05-08 01:59 19.48155 -28.95849 39031 ft 469 kts 25°
2026-05-08 02:00 19.53936 -28.92645 39034 ft 468 kts 25°
2026-05-08 02:00 19.59718 -28.89437 39034 ft 468 kts 24°
2026-05-08 02:01 19.65493 -28.86231 39034 ft 467 kts 24°
2026-05-08 02:01 19.71264 -28.83025 39031 ft 469 kts 24°
2026-05-08 02:02 19.77035 -28.79816 39033 ft 469 kts 24°
2026-05-08 02:02 19.82800 -28.76608 39034 ft 469 kts 24°
2026-05-08 02:03 19.88596 -28.73380 39036 ft 469 kts 24°
2026-05-08 02:03 19.94396 -28.70147 39032 ft 470 kts 24°
2026-05-08 02:04 20.00172 -28.66925 39033 ft 470 kts 24°
2026-05-08 02:04 20.05995 -28.63673 39032 ft 469 kts 24°
2026-05-08 02:05 20.11774 -28.60443 39040 ft 469 kts 24°
2026-05-08 02:05 20.17592 -28.57189 39039 ft 470 kts 24°
2026-05-08 02:06 20.23375 -28.53952 39039 ft 470 kts 24°
2026-05-08 02:06 20.29163 -28.50709 39041 ft 469 kts 24°
2026-05-08 02:07 20.34981 -28.47446 39042 ft 470 kts 24°
2026-05-08 02:07 20.40776 -28.44195 39042 ft 471 kts 24°
2026-05-08 02:08 20.46565 -28.40943 39042 ft 470 kts 24°
2026-05-08 02:08 20.52343 -28.37694 39042 ft 469 kts 24°
2026-05-08 02:09 20.58139 -28.34433 39037 ft 469 kts 24°
2026-05-08 02:09 20.63919 -28.31178 39035 ft 469 kts 24°
2026-05-08 02:10 20.69733 -28.27901 39033 ft 469 kts 24°
2026-05-08 02:10 20.75519 -28.24637 39032 ft 470 kts 24°
2026-05-08 02:11 20.81279 -28.21385 39030 ft 469 kts 24°
2026-05-08 02:11 20.87097 -28.18097 39030 ft 470 kts 24°
2026-05-08 02:12 20.92877 -28.14827 39030 ft 470 kts 24°
2026-05-08 02:12 20.98640 -28.11565 39030 ft 469 kts 24°
2026-05-08 02:13 21.04435 -28.08281 39032 ft 469 kts 24°
2026-05-08 02:13 21.10199 -28.05013 39034 ft 470 kts 24°
2026-05-08 02:14 21.15991 -28.01725 39042 ft 469 kts 24°
2026-05-08 02:14 21.21798 -27.98426 39040 ft 471 kts 24°
2026-05-08 02:15 21.27572 -27.95142 39040 ft 470 kts 24°
2026-05-08 02:15 21.33330 -27.91865 39043 ft 469 kts 24°
2026-05-08 02:16 21.39104 -27.88576 39039 ft 469 kts 24°
2026-05-08 02:16 21.44879 -27.85282 39047 ft 467 kts 24°
2026-05-08 02:17 21.50625 -27.82004 39048 ft 469 kts 24°
2026-05-08 02:17 21.56393 -27.78709 39045 ft 469 kts 24°
2026-05-08 02:18 21.62178 -27.75402 39049 ft 470 kts 24°
2026-05-08 02:18 21.67985 -27.72079 39052 ft 469 kts 24°
2026-05-08 02:19 21.73747 -27.68779 39052 ft 469 kts 23°
2026-05-08 02:19 21.79512 -27.65473 39055 ft 468 kts 23°
2026-05-08 02:20 21.85247 -27.62182 39049 ft 470 kts 23°
2026-05-08 02:20 21.91024 -27.58865 39054 ft 469 kts 23°
2026-05-08 02:21 21.96822 -27.55532 39054 ft 471 kts 23°
2026-05-08 02:21 22.02583 -27.52217 39055 ft 470 kts 24°
2026-05-08 02:22 22.08370 -27.48884 39054 ft 471 kts 23°
2026-05-08 02:22 22.14133 -27.45561 39054 ft 469 kts 23°
2026-05-08 02:23 22.19899 -27.42235 39057 ft 471 kts 23°
2026-05-08 02:23 22.25680 -27.38895 39053 ft 469 kts 23°
2026-05-08 02:24 22.31419 -27.35578 39052 ft 470 kts 23°
2026-05-08 02:24 22.37188 -27.32239 39050 ft 471 kts 23°
2026-05-08 02:25 22.42980 -27.28885 39045 ft 471 kts 23°
2026-05-08 02:25 22.48763 -27.25532 39042 ft 470 kts 23°
2026-05-08 02:26 22.54562 -27.22166 39047 ft 471 kts 23°
2026-05-08 02:26 22.60329 -27.18817 39044 ft 471 kts 23°
2026-05-08 02:27 22.66113 -27.15453 39046 ft 471 kts 23°
2026-05-08 02:27 22.71859 -27.12110 39047 ft 471 kts 23°
2026-05-08 02:28 22.77681 -27.08718 39043 ft 472 kts 23°
2026-05-08 02:28 22.83421 -27.05371 39050 ft 471 kts 23°
2026-05-08 02:29 22.89222 -27.01984 39047 ft 472 kts 23°
2026-05-08 02:29 22.94976 -26.98623 39051 ft 471 kts 23°
2026-05-08 02:30 23.00738 -26.95253 39054 ft 471 kts 23°
2026-05-08 02:30 23.06516 -26.91871 39052 ft 472 kts 23°
2026-05-08 02:31 23.12331 -26.88463 39061 ft 472 kts 23°
2026-05-08 02:31 23.18089 -26.85086 39060 ft 471 kts 22°
2026-05-08 02:32 23.23876 -26.81688 39062 ft 473 kts 22°
2026-05-08 02:32 23.29670 -26.78283 39061 ft 473 kts 22°
2026-05-08 02:33 23.35428 -26.74895 39064 ft 473 kts 22°
2026-05-08 02:33 23.41241 -26.71472 39060 ft 472 kts 22°
2026-05-08 02:34 23.47033 -26.68058 39065 ft 473 kts 22°
2026-05-08 02:34 23.52807 -26.64651 39061 ft 473 kts 22°
2026-05-08 02:35 23.58589 -26.61235 39066 ft 472 kts 22°
2026-05-08 02:35 23.64360 -26.57823 39068 ft 473 kts 22°
2026-05-08 02:36 23.70155 -26.54393 39069 ft 474 kts 22°
2026-05-08 02:36 23.75927 -26.50973 39068 ft 473 kts 22°
2026-05-08 02:37 23.81710 -26.47544 39074 ft 473 kts 22°
2026-05-08 02:37 23.87508 -26.44101 39071 ft 472 kts 22°